Location: Bella Coola
(52.3721°N, 126.7539°W)
Time: 17:01:36
(UTC-07:00)

ISS - Pass Details

Date: 23 May 2019
Orbit: 408 x 419 km, 51.6° (Epoch: 21 June)

Event Time Altitude Azimuth Distance (km) Brightness Sun altitude
Rises 23:39:10 0° 272° (W) 2,359 0.4 -13.4°
Reaches altitude 10° 23:41:16 10° 271° (W) 1,497 -0.6 -13.6°
Maximum altitude 23:44:37 78° 186° (S) 432 -3.9 -13.8°
Enters shadow 23:47:44 12° 99° (E) 1,399 -1.4 -14.0°
